Probability
0 0 0 0 0 0 0 1 2 3 2 1 0 0 0 0 0 0 0 0 0 0 0 0 0 0 0 0 0 0 0 0 0 0 0 0 0 0 0 0 0 0 0
0 0 0 0 0 0 0 1 3 3 3 2 1 0 0 0 0 0 0 0 0 0 0 0 0 0 0 0 0 0 0 0 0 0 0 0 0 0 0 0 0 0 0
1 0 0 0 0 0 0 2 3 3 3 3 2 1 0 0 0 0 0 0 0 0 0 0 0 0 0 0 0 0 0 0 0 0 0 0 0 0 0 0 0 0 0
2 1 0 0 0 0 0 1 3 3 3 3 3 1 0 0 0 0 0 0 0 0 0 0 0 0 0 0 0 0 0 0 0 0 0 0 0 0 0 0 0 0 0
2 1 0 0 0 0 0 1 3 3 3 3 3 2 1 1 0 0 0 0 0 0 0 0 0 0 0 0 0 0 0 0 0 0 0 0 0 0 0 0 0 0 0
1 0 0 0 1 1 1 2 3 3 3 3 3 3 3 2 1 0 0 0 0 0 0 0 0 0 0 0 0 0 0 0 0 0 0 0 0 0 0 0 0 0 0
1 0 0 0 1 2 1 2 3 3 3 3 3 3 3 2 1 0 0 0 0 0 0 0 0 0 0 0 0 0 0 0 0 0 0 0 0 0 0 0 0 0 0
2 1 0 0 1 1 1 1 2 3 3 3 3 3 3 1 0 0 0 0 0 0 0 0 0 0 0 0 0 0 0 0 0 0 0 0 0 0 0 0 0 0 0
2 1 0 0 0 0 0 1 1 2 3 3 3 3 2 1 0 0 0 0 0 0 0 0 0 0 0 0 0 0 0 0 0 0 0 0 0 0 0 0 0 0 0
2 1 0 0 0 0 0 0 0 1 1 2 2 1 1 0 0 0 0 0 0 0 0 0 0 0 0 0 0 0 0 0 0 0 0 0 0 0 0 0 0 0 0
2 1 0 0 0 0 0 0 0 0 0 1 1 0 0 0 0 0 0 0 0 0 0 0 0 0 0 0 0 0 0 0 0 0 0 0 0 0 0 0 1 1 0
1 0 0 0 0 0 0 0 0 0 0 0 0 0 0 0 0 0 0 0 0 0 0 0 0 0 0 0 0 0 0 0 0 0 0 0 0 0 1 1 1 1 1
0 0 0 0 0 0 0 0 0 0 0 0 0 0 0 0 0 0 0 0 0 0 0 0 0 0 0 0 0 0 0 0 0 0 0 0 0 0 1 1 1 1 0
0 0 0 0 0 0 0 0 0 1 1 1 0 0 0 0 0 0 0 0 0 0 0 0 0 0 0 0 0 0 0 0 0 0 0 0 0 0 1 1 0 0 0
0 0 0 0 0 0 0 0 0 1 1 1 0 0 0 0 0 0 0 0 0 0 0 0 0 0 0 0 0 0 0 0 0 0 0 0 0 0 0 0 0 0 0
0 0 0 0 0 0 0 0 0 0 0 0 0 0 0 0 0 0 0 0 0 0 0 0 0 0 0 0 0 0 0 0 0 0 0 0 0 0 0 0 0 0 0
0 0 0 0 0 0 0 0 0 0 0 0 0 0 0 0 0 0 0 0 0 0 0 0 0 0 0 0 0 0 0 0 0 0 0 0 0 0 0 0 0 0 0
0 0 0 0 0 0 0 0 0 0 0 0 0 0 0 0 0 0 0 0 0 0 0 0 0 0 0 0 0 0 0 0 0 0 0 0 0 0 0 0 0 0 0
0 0 0 0 0 0 0 0 0 0 0 0 0 0 0 0 0 0 0 0 0 0 0 0 0 0 0 0 0 0 0 0 0 0 0 0 0 0 0 0 0 0 0
0 0 0 0 0 0 0 0 0 0 0 0 0 0 0 0 0 0 0 0 0 0 0 0 0 0 0 0 0 0 0 0 0 0 0 0 0 0 0 0 0 0 0
0 0 0 0 0 0 0 0 0 0 0 0 0 0 0 0 0 0 0 0 0 0 0 0 0 0 0 0 0 0 0 0 0 0 0 0 0 0 0 0 0 0 0
0 0 0 0 0 0 0 0 0 0 0 0 0 0 0 0 0 0 0 0 0 0 0 0 0 0 0 0 0 0 0 0 0 0 0 0 0 0 0 0 0 0 0
0 0 0 0 0 0 0 0 0 0 0 0 0 0 0 0 0 0 0 0 0 0 0 0 0 0 0 0 0 0 0 0 0 0 0 0 0 0 0 0 0 0 0
0 0 0 0 0 0 0 0 0 0 0 0 0 0 0 0 0 0 0 0 0 0 0 0 0 0 0 0 0 0 0 0 0 0 0 0 0 0 0 0 0 0 0
0 0 0 0 0 0 0 0 0 0 0 0 0 0 0 0 0 0 0 0 0 0 0 0 0 0 0 0 0 0 0 0 0 0 0 0 0 0 0 0 0 0 0
0 0 0 0 0 0 0 0 0 0 0 0 0 0 0 0 0 0 0 0 0 0 0 0 0 0 0 0 0 0 0 0 0 0 0 0 0 0 0 0 0 0 0
Wind_Speed
2 3 3 2 3 4 5 6 6 7 7 8 8 9 9 9 9 9 9 9 9 9 9 10 10 10 11 11 11 11 11 11 11 11 11 10 10 10 11 10 9 6 11
1 1 2 2 3 4 4 5 6 6 7 7 8 8 8 8 8 8 8 8 9 9 10 10 10 10 10 10 10 10 10 11 11 11 10 9 10 10 10 9 9 6 10
2 1 1 3 3 4 4 5 5 5 6 7 7 7 8 8 8 8 8 7 8 8 9 10 10 9 9 9 9 10 10 10 10 10 10 5 6 9 10 10 9 10 10
2 2 2 4 4 5 5 4 5 5 6 6 7 7 7 7 7 7 7 7 7 8 9 9 9 9 9 8 9 9 9 9 10 10 6 5 4 8 10 10 9 9 9
2 2 2 4 4 5 5 5 5 5 5 6 7 7 7 7 6 7 7 7 8 8 8 9 9 9 9 8 8 8 8 9 10 8 4 4 4 7 9 9 9 9 8
3 2 2 5 4 4 5 5 5 5 6 6 6 6 6 6 6 6 6 7 7 7 7 7 8 8 8 9 8 8 8 9 8 5 4 4 4 7 8 9 9 9 8
3 2 2 5 5 5 5 5 5 5 5 5 6 6 6 6 6 6 7 6 6 6 6 7 7 8 8 8 8 8 9 9 6 4 3 3 4 8 8 8 8 9 9
2 2 3 4 5 5 5 5 5 5 5 5 5 5 6 6 6 6 6 6 6 6 6 7 7 7 7 8 8 9 9 8 6 4 3 3 5 7 7 8 8 8 9
3 3 2 3 4 5 5 4 5 5 5 5 5 6 6 6 6 7 6 6 5 5 6 6 7 7 8 8 9 9 9 9 5 3 3 2 5 6 7 8 7 7 8
2 2 2 3 3 3 3 4 5 5 5 5 6 6 6 6 6 7 6 6 5 5 5 6 6 7 7 8 8 9 9 7 4 3 2 3 6 6 7 7 7 7 7
1 1 1 2 2 2 2 3 3 4 4 4 4 5 4 3 3 4 5 6 6 5 5 6 6 6 7 7 8 8 7 3 3 3 3 5 6 6 6 7 7 7 8
1 0 0 1 1 2 2 2 1 2 2 2 2 2 2 2 2 3 5 6 6 6 6 6 6 6 5 3 4 6 3 3 3 2 3 6 6 6 6 6 6 6 6
2 1 0 0 1 1 1 1 1 1 1 1 2 2 2 2 2 2 2 3 3 4 3 4 4 3 2 2 2 2 3 3 2 2 4 7 6 6 6 6 6 5 5
2 2 1 1 0 1 1 1 0 0 0 1 1 2 2 1 1 1 1 1 2 1 2 2 2 2 2 2 2 3 3 2 2 2 3 7 6 6 6 6 6 6 6
2 2 2 1 1 0 1 0 0 0 1 1 1 1 2 1 1 1 1 1 1 1 1 1 2 2 2 2 2 3 3 3 3 2 3 7 7 7 7 7 7 7 6
3 3 2 1 1 1 0 0 1 0 0 1 1 1 1 1 1 1 1 1 1 0 1 1 1 1 1 1 2 2 2 2 2 3 3 5 8 9 8 8 8 7 7
3 2 2 2 1 1 1 1 0 1 1 1 1 1 1 1 1 1 1 0 0 0 1 1 2 1 1 2 2 2 2 2 2 3 3 3 4 8 9 9 8 8 7
2 2 2 1 1 2 1 1 0 1 1 1 1 1 1 1 1 1 1 0 0 1 1 1 1 1 1 1 1 2 2 1 2 2 3 3 3 4 6 10 9 8 8
3 2 2 1 2 2 1 0 0 0 1 1 1 1 1 1 1 1 1 0 1 1 1 1 1 1 1 1 1 2 2 2 1 3 3 3 3 3 3 7 10 10 9
2 2 2 1 1 1 1 1 0 1 1 1 0 1 1 1 1 1 1 1 1 1 1 1 1 1 1 1 1 2 2 2 2 2 2 2 3 4 4 4 5 7 10
2 2 2 2 2 1 1 1 1 0 0 0 0 0 1 1 1 1 1 1 1 1 1 1 1 1 2 2 2 2 2 2 2 1 1 2 3 3 3 4 3 3 4
4 4 3 3 3 2 1 1 1 1 0 0 0 0 0 0 0 1 1 1 1 1 1 1 1 1 1 1 2 1 2 2 2 1 1 1 2 2 3 3 3 3 3
4 4 4 4 3 3 2 1 1 1 1 0 0 1 1 0 0 0 1 1 1 2 1 2 1 2 2 1 1 2 1 2 2 2 1 1 2 1 2 2 2 3 3
5 4 3 3 3 2 2 2 2 2 2 2 1 0 0 0 0 0 1 1 1 1 1 2 2 1 3 2 1 0 1 2 1 2 2 1 1 2 2 2 2 2 2
3 3 3 3 2 2 2 3 3 2 2 1 1 1 0 0 0 0 1 1 1 1 1 1 1 2 2 2 2 1 1 0 1 2 2 2 2 2 2 2 1 2 2
2 2 2 3 2 2 3 3 3 3 2 1 1 1 1 0 0 0 0 1 1 2 2 2 2 2 2 2 2 2 2 2 2 2 3 2 3 2 2 1 1 2 2
Wind_Direction
306 312 310 51 77 81 90 93 89 85 86 86 84 80 77 77 77 77 76 74 76 76 77 80 79 75 74 73 73 71 67 64 61 59 56 54 54 58 62 62 56 49 55
258 300 329 68 86 89 91 100 98 95 91 90 88 84 79 75 75 76 79 76 75 74 75 79 79 77 75 74 74 72 70 66 62 57 55 51 51 57 57 56 55 56 57
76 35 38 68 82 93 90 101 105 102 98 92 90 86 82 76 74 77 80 77 75 75 78 78 75 76 77 77 74 73 71 67 63 57 51 39 42 54 56 56 57 57 56
84 63 49 63 75 88 87 92 105 104 98 94 91 86 85 80 76 75 80 78 75 76 77 78 75 73 75 77 76 74 73 70 65 59 49 39 37 51 54 54 54 55 54
62 52 53 66 77 83 88 85 95 95 94 93 90 85 79 78 77 74 77 76 74 73 73 77 76 74 72 75 76 75 74 73 68 59 48 38 32 48 53 53 51 51 51
57 42 56 68 74 78 79 82 89 95 90 88 86 81 76 75 72 70 73 76 74 71 70 75 77 76 74 73 72 71 75 78 71 58 48 37 33 51 54 55 51 49 51
70 46 57 66 66 71 75 73 74 94 91 86 85 82 77 75 70 68 67 72 73 73 72 73 74 77 76 75 72 73 74 75 72 63 47 33 39 54 54 54 53 51 51
90 58 58 57 57 60 66 67 63 72 87 85 85 82 78 74 67 64 63 66 68 72 71 70 70 70 73 74 73 72 70 71 69 60 46 33 42 50 53 52 49 49 51
76 64 53 51 50 51 55 57 62 59 68 78 79 75 70 66 63 62 60 63 62 66 68 71 71 71 72 72 71 71 69 64 62 53 47 37 41 49 51 49 48 49 50
71 60 46 43 47 44 44 55 54 56 60 73 74 70 68 63 57 57 55 56 52 62 67 67 70 73 70 69 68 65 62 58 52 44 35 38 45 47 46 45 45 47 52
68 45 54 48 51 47 42 50 48 53 55 72 73 69 66 55 52 52 51 48 50 53 58 61 63 64 63 63 62 60 58 51 46 38 25 36 46 48 46 43 43 49 54
198 305 58 52 58 51 46 36 29 43 48 67 73 68 59 49 49 55 54 53 50 52 52 54 55 52 49 45 52 56 54 47 45 35 25 29 38 42 42 43 42 47 49
198 197 213 115 69 68 58 44 26 39 53 78 88 79 72 59 46 50 57 46 41 45 43 43 41 39 41 45 52 54 56 56 42 29 22 26 30 36 41 39 36 40 41
198 214 212 191 119 87 72 65 35 136 113 114 112 101 97 83 63 50 59 53 48 41 44 40 43 40 42 51 60 60 53 55 44 29 25 26 28 32 35 34 34 31 29
211 218 215 200 179 131 99 141 88 230 171 136 107 101 108 111 100 77 72 67 60 54 60 57 49 42 40 43 61 68 63 56 45 36 21 27 28 26 30 32 30 26 21
225 228 208 207 207 160 161 214 202 85 154 130 122 121 124 127 132 121 101 83 49 51 68 77 69 54 36 41 54 66 68 63 49 38 28 22 30 29 28 26 22 19 16
214 223 208 202 199 192 201 209 176 104 73 119 119 106 117 129 144 146 138 110 349 68 94 87 71 70 56 50 43 46 67 65 58 44 38 32 24 24 23 21 16 13 13
199 208 219 198 199 214 211 207 149 102 91 100 101 89 79 80 118 141 146 181 183 126 116 114 93 78 55 44 39 24 33 61 66 60 52 44 35 25 19 23 18 16 18
200 204 221 220 201 211 197 181 113 100 73 68 96 89 64 68 82 127 153 189 143 119 98 112 101 100 82 50 44 41 30 31 39 62 57 49 44 36 25 19 17 13 14
201 202 215 226 228 198 153 127 97 51 37 22 63 69 68 65 75 93 81 32 96 116 101 99 104 81 98 84 61 44 35 35 37 56 53 52 45 36 30 19 9 4 11
210 210 208 207 220 178 172 183 196 228 329 315 277 84 83 89 106 117 121 78 74 111 116 123 124 113 77 85 73 31 18 40 44 33 42 47 38 30 27 18 9 5 359
215 214 211 208 208 204 208 210 188 148 181 252 333 37 101 124 142 163 154 146 132 129 115 126 127 127 99 91 104 91 351 345 10 12 30 45 29 17 12 12 10 8 1
222 221 219 214 213 211 200 135 87 79 56 33 321 326 7 109 149 156 173 168 154 152 177 184 173 156 154 143 103 133 154 249 321 332 356 29 19 360 342 353 1 355 354
232 225 221 218 215 205 178 176 172 182 211 224 218 203 26 54 153 187 173 164 161 163 186 194 174 178 155 167 177 136 149 154 176 305 316 341 351 322 315 333 333 332 340
231 218 214 210 216 198 181 192 189 203 224 212 166 165 215 330 233 218 179 167 171 175 187 178 157 160 163 165 169 158 141 104 146 190 269 304 320 291 286 291 299 310 323
227 211 203 196 211 202 193 199 198 205 207 197 210 204 226 246 286 307 212 189 187 189 196 195 176 169 174 165 161 151 153 163 185 192 230 272 288 285 284 270 270 285 299